Location: Kelowna
(49.8880°N, 119.4960°W)
Time: 14:46:21
(UTC-07:00)

TIGRISAT - Pass Details

Date: 03 May 2024
Orbit: 594 x 672 km, 97.7° (Epoch: 27 May)

Event Time Altitude Azimuth Distance (km) Brightness Sun altitude
Rises 04:41:05 0° 163° (SSE) 2,875 ? -7.6°
Reaches altitude 10° 04:43:16 10° 163° (SSE) 1,963 ? -7.3°
Maximum altitude 04:47:32 85° 75° (ENE) 613 ? -6.7°
Drops below altitude 10° 04:51:46 10° 348° (NNW) 1,948 ? -6.2°
Sets 04:53:56 0° 347° (NNW) 2,851 ? -5.9°
